Regional Weather Roundup
Issued by NWS

Home | Current Version | Previous Version | Text Only | Print | Product List | Glossary Off
Versions: 1 2 3 4 5 6 7 8 9 10 11 12 13 14 15 16 17 18 19 20 21 22 23 24 25 26 27 28 29 30 31 32 33 34 35 36 37 38 39 40 41 42 43 44 45 46 47 48 49 50

000
ASUS43 KFSD 291102
RWRSD

WEATHER ROUNDUP FOR SOUTH DAKOTA
NATIONAL WEATHER SERVICE SIOUX FALLS SD
600 AM CDT THU SEP 29 2016

NOTE: "FAIR" INDICATES FEW OR NO CLOUDS BELOW 12,000 FEET WITH NO
SIGNIFICANT WEATHER AND/OR OBSTRUCTIONS TO VISIBILITY.


SDZ001>005-009-010-012>017-291200-
NORTHWEST AND NORTH CENTRAL SOUTH DAKOTA

CITY           SKY/WX    TMP DP  RH WIND       PRES   REMARKS
BUFFALO          N/A     49  41  74 SE10      30.23S
FAITH            N/A     45  42  89 SE15      30.33S
MOBRIDGE       CLEAR     45  41  86 SE8       30.37R
$$

SDZ012>016-024>037-041>051-057-063-072>074-291200-
SOUTHWEST AND SOUTH CENTRAL SOUTH DAKOTA

CITY           SKY/WX    TMP DP  RH WIND       PRES   REMARKS
RAPID CTY ARPT CLEAR     41  34  76 SE7       30.32S
PIERRE         CLOUDY    42  40  92 SE6       30.39R
CUSTER         CLEAR     43  36  76 CALM      30.39F
PHILIP         CLEAR     39  38  96 E7        30.36S
PINE RIDGE     CLEAR     51  38  60 S8        30.34F
WINNER         FAIR      45  41  86 S7        30.41R
$$

SDZ004>011-016>023-039-040-291200-
NORTHEAST SOUTH DAKOTA

CITY           SKY/WX    TMP DP  RH WIND       PRES   REMARKS
ABERDEEN       CLOUDY    36  34  92 CALM      30.44R
WATERTOWN      CLOUDY    44  41  89 CALM      30.44R
SISSETON         N/A     35  34  96 CALM      30.45R
$$

SDZ017-020-022-023-036>040-048>070-291200-
SOUTHEAST SOUTH DAKOTA

CITY           SKY/WX    TMP DP  RH WIND       PRES   REMARKS
SIOUX FALLS    CLOUDY    42  40  92 CALM      30.43S
HURON          FOG       38  38 100 E3        30.43R VSB 3/4
CHAMBERLAIN    CLOUDY    42  41  98 CALM      30.42R
MITCHELL       FOG       36  36 100 CALM      30.44R VSB 1/2
YANKTON        CLOUDY    41  39  93 N5        30.41S
$$

ABBREVIATIONS USED IN REMARKS
   TC - TEMPERATURE IN CELSIUS
  WCI - WIND CHILL INDEX
   HX - HEAT INDEX
  VSB - VISIBILITY





USA.gov is the U.S. government's official web portal to all federal, state and local government web resources and services.